TimeMDT,TemperatureF,Dew PointF,Humidity,Sea Level PressureIn,VisibilityMPH,Wind Direction,Wind SpeedMPH,Gust SpeedMPH,PrecipitationIn,Events,Conditions,WindDirDegrees,DateUTC
12:53 AM,60.1,32.0,35,29.64,10.0,SE,9.2,-,N/A,,Partly Cloudy,130,2012-10-23 06:53:00
1:53 AM,60.1,32.0,35,29.62,10.0,SSE,9.2,-,N/A,,Clear,150,2012-10-23 07:53:00
2:53 AM,60.1,34.0,38,29.63,10.0,SE,8.1,-,N/A,,Clear,130,2012-10-23 08:53:00
3:53 AM,62.1,34.0,35,29.62,10.0,SSW,18.4,25.3,N/A,,Clear,200,2012-10-23 09:53:00
4:53 AM,60.1,34.0,38,29.62,10.0,SSW,13.8,-,N/A,,Clear,210,2012-10-23 10:53:00
5:53 AM,57.9,34.0,41,29.66,10.0,SSW,6.9,-,N/A,,Clear,200,2012-10-23 11:53:00
6:53 AM,57.9,33.1,39,29.68,10.0,South,9.2,-,N/A,,Clear,190,2012-10-23 12:53:00
7:53 AM,55.0,32.0,42,29.71,10.0,ESE,5.8,-,N/A,,Scattered Clouds,120,2012-10-23 13:53:00
8:53 AM,60.8,32.0,34,29.85,10.0,South,8.1,-,N/A,,Scattered Clouds,170,2012-10-23 14:53:00
9:53 AM,63.0,30.9,30,29.71,10.0,Calm,Calm,-,N/A,,Scattered Clouds,0,2012-10-23 15:53:00
10:53 AM,64.4,28.4,26,29.86,10.0,SSW,5.8,-,N/A,,Scattered Clouds,210,2012-10-23 16:53:00
11:53 AM,66.2,28.4,24,29.85,10.0,Calm,Calm,-,N/A,,Scattered Clouds,0,2012-10-23 17:53:00
12:53 PM,68.0,26.1,21,29.66,10.0,SW,17.3,25.3,N/A,,Scattered Clouds,230,2012-10-23 18:53:00
1:53 PM,69.8,24.8,18,29.81,10.0,WSW,21.9,26.5,N/A,,Clear,240,2012-10-23 19:53:00
2:53 PM,71.1,26.1,19,29.62,10.0,SW,20.7,27.6,N/A,,Partly Cloudy,220,2012-10-23 20:53:00
3:53 PM,72.0,26.1,18,29.59,10.0,SSW,17.3,27.6,N/A,,Clear,210,2012-10-23 21:53:00
4:53 PM,70.0,25.0,18,29.60,10.0,SSW,16.1,-,N/A,,Clear,200,2012-10-23 22:53:00
5:53 PM,68.0,26.1,21,29.61,10.0,SSW,9.2,-,N/A,,Clear,200,2012-10-23 23:53:00
6:53 PM,64.9,24.1,21,29.62,10.0,South,5.8,-,N/A,,Clear,180,2012-10-24 00:53:00
7:53 PM,62.1,21.9,21,29.65,10.0,NNE,6.9,-,N/A,,Clear,30,2012-10-24 01:53:00
8:53 PM,59.0,21.9,24,29.64,10.0,Variable,4.6,-,N/A,,Clear,0,2012-10-24 02:53:00
9:53 PM,60.1,23.0,24,29.63,10.0,East,5.8,-,N/A,,Clear,90,2012-10-24 03:53:00
10:53 PM,63.0,24.1,23,29.62,10.0,Calm,Calm,-,N/A,,Clear,0,2012-10-24 04:53:00
11:53 PM,59.0,24.8,27,29.79,10.0,SE,5.8,-,N/A,,Partly Cloudy,130,2012-10-24 05:53:00